| time (UTC) | temp F | wind direction | speed MPH | gust MPH | rain 1hr in | rain 24hr in | rain mn in | humidity % | barometer mb |
| 20260505090104 | 69 | 203 | 3.0 | 7.0 | 0.00 | 0.00 | 0.00 | 88 | 1008.8 |
| 20260505085538 | 69 | 198 | 3.0 | 12.0 | 0.00 | 0.00 | 0.00 | 88 | 1008.7 |
| 20260505085040 | 69 | 196 | 3.0 | 12.0 | 0.00 | 0.00 | 0.00 | 88 | 1008.8 |
| 20260505084558 | 69 | 200 | 3.0 | 8.0 | 0.00 | 0.00 | 0.00 | 88 | 1008.8 |
| 20260505084049 | 69 | 153 | 3.0 | 8.0 | 0.00 | 0.00 | 0.00 | 88 | 1009.0 |
| 20260505083540 | 69 | 189 | 3.0 | 8.0 | 0.00 | 0.00 | 0.00 | 88 | 1009.0 |
| 20260505083109 | 69 | 192 | 2.0 | 7.0 | 0.00 | 0.00 | 0.00 | 88 | 1009.1 |
| 20260505082539 | 69 | 178 | 3.0 | 11.0 | 0.00 | 0.00 | 0.00 | 88 | 1009.0 |
| 20260505082037 | 69 | 174 | 3.0 | 11.0 | 0.00 | 0.00 | 0.00 | 87 | 1009.1 |
| 20260505081553 | 69 | 168 | 2.0 | 9.0 | 0.00 | 0.00 | 0.00 | 87 | 1009.1 |
| 20260505081040 | 69 | 166 | 3.0 | 9.0 | 0.00 | 0.00 | 0.00 | 87 | 1009.2 |
| 20260505080540 | 69 | 196 | 3.0 | 8.0 | 0.00 | 0.00 | 0.00 | 87 | 1009.2 |
| 20260505080053 | 69 | 211 | 3.0 | 8.0 | 0.00 | 0.00 | 0.00 | 87 | 1009.3 |
| 20260505075541 | 69 | 196 | 2.0 | 9.0 | 0.00 | 0.00 | 0.00 | 87 | 1009.4 |
| 20260505075039 | 69 | 144 | 2.0 | 9.0 | 0.00 | 0.00 | 0.00 | 87 | 1009.4 |
| 20260505074553 | 69 | 169 | 3.0 | 9.0 | 0.00 | 0.00 | 0.00 | 87 | 1009.5 |
| 20260505074036 | 69 | 130 | 3.0 | 8.0 | 0.00 | 0.00 | 0.00 | 87 | 1009.6 |
| 20260505073538 | 69 | 161 | 2.0 | 8.0 | 0.00 | 0.00 | 0.00 | 87 | 1009.5 |
| 20260505073056 | 69 | 153 | 2.0 | 10.0 | 0.00 | 0.00 | 0.00 | 86 | 1009.4 |
| 20260505072536 | 69 | 183 | 2.0 | 10.0 | 0.00 | 0.00 | 0.00 | 86 | 1009.4 |
| 20260505072037 | 69 | 174 | 4.0 | 10.0 | 0.00 | 0.00 | 0.00 | 86 | 1009.5 |
| 20260505071552 | 69 | 175 | 2.0 | 11.0 | 0.00 | 0.00 | 0.00 | 86 | 1009.5 |
| 20260505071039 | 69 | 198 | 3.0 | 15.0 | 0.00 | 0.00 | 0.00 | 86 | 1009.7 |
| 20260505070537 | 70 | 150 | 4.0 | 15.0 | 0.00 | 0.00 | 0.00 | 85 | 1009.7 |
| 20260505070104 | 70 | 174 | 4.0 | 14.0 | 0.00 | 0.00 | 0.00 | 85 | 1009.8 |
| 20260505065537 | 70 | 173 | 2.0 | 13.0 | 0.00 | 0.00 | 0.00 | 85 | 1010.0 |
| 20260505065036 | 70 | 178 | 3.0 | 13.0 | 0.00 | 0.00 | 0.00 | 85 | 1010.0 |
| 20260505064554 | 70 | 113 | 3.0 | 10.0 | 0.00 | 0.00 | 0.00 | 85 | 1010.2 |
| 20260505064039 | 70 | 153 | 3.0 | 10.0 | 0.00 | 0.00 | 0.00 | 85 | 1010.2 |
| 20260505063536 | 70 | 138 | 3.0 | 10.0 | 0.00 | 0.00 | 0.00 | 85 | 1010.2 |
| 20260505063049 | 70 | 170 | 5.0 | 10.0 | 0.00 | 0.00 | 0.00 | 85 | 1010.2 |
| 20260505062536 | 70 | 155 | 3.0 | 14.0 | 0.00 | 0.00 | 0.00 | 85 | 1010.0 |
| 20260505062037 | 70 | 182 | 5.0 | 14.0 | 0.00 | 0.00 | 0.00 | 85 | 1010.0 |
| 20260505061614 | 70 | 182 | 3.0 | 12.0 | 0.00 | 0.00 | 0.00 | 85 | 1010.1 |
| 20260505061036 | 70 | 181 | 3.0 | 12.0 | 0.00 | 0.00 | 0.00 | 84 | 1010.0 |
| 20260505060537 | 70 | 169 | 4.0 | 12.0 | 0.00 | 0.00 | 0.00 | 84 | 1009.9 |
| 20260505060056 | 70 | 215 | 4.0 | 12.0 | 0.00 | 0.00 | 0.00 | 84 | 1010.1 |
| 20260505055537 | 70 | 132 | 4.0 | 12.0 | 0.00 | 0.00 | 0.00 | 84 | 1010.1 |
| 20260505055041 | 70 | 184 | 2.0 | 13.0 | 0.00 | 0.00 | 0.00 | 84 | 1010.1 |
| 20260505054556 | 70 | 194 | 5.0 | 13.0 | 0.00 | 0.00 | 0.00 | 83 | 1010.0 |
| 20260505054039 | 70 | 193 | 5.0 | 11.0 | 0.00 | 0.00 | 0.00 | 83 | 1010.2 |
| 20260505053537 | 70 | 153 | 4.0 | 14.0 | 0.00 | 0.00 | 0.00 | 83 | 1010.1 |
| 20260505053052 | 70 | 188 | 2.0 | 14.0 | 0.00 | 0.00 | 0.00 | 83 | 1010.2 |
| 20260505052536 | 70 | 170 | 4.0 | 14.0 | 0.00 | 0.00 | 0.00 | 83 | 1010.1 |
| 20260505052036 | 70 | 162 | 5.0 | 14.0 | 0.00 | 0.00 | 0.00 | 83 | 1009.9 |
| 20260505051547 | 70 | 178 | 4.0 | 13.0 | 0.00 | 0.00 | 0.00 | 83 | 1010.0 |
| 20260505051036 | 71 | 178 | 5.0 | 13.0 | 0.00 | 0.00 | 0.00 | 83 | 1010.2 |
| 20260505050538 | 71 | 217 | 5.0 | 15.0 | 0.00 | 0.00 | 0.00 | 83 | 1010.3 |
| 20260505041555 | 72 | 196 | 4.0 | 9.0 | 0.00 | 0.00 | 0.00 | 81 | 1010.6 |
| 20260505041037 | 72 | 152 | 3.0 | 11.0 | 0.00 | 0.00 | 0.00 | 81 | 1010.6 |
| 20260505040537 | 72 | 165 | 4.0 | 13.0 | 0.00 | 0.00 | 0.00 | 80 | 1010.5 |
| 20260505040100 | 72 | 213 | 4.0 | 13.0 | 0.00 | 0.00 | 0.00 | 80 | 1010.4 |
| 20260505035538 | 72 | 200 | 4.0 | 12.0 | 0.00 | 0.00 | 0.00 | 80 | 1010.4 |
| 20260505035037 | 72 | 197 | 4.0 | 12.0 | 0.00 | 0.00 | 0.00 | 80 | 1010.4 |
| 20260505034550 | 72 | 166 | 6.0 | 12.0 | 0.00 | 0.00 | 0.00 | 79 | 1010.3 |
| 20260505034037 | 72 | 171 | 4.0 | 12.0 | 0.00 | 0.00 | 0.00 | 79 | 1010.4 |
| 20260505033537 | 72 | 182 | 4.0 | 12.0 | 0.00 | 0.00 | 0.00 | 79 | 1010.4 |
| 20260505033059 | 73 | 194 | 4.0 | 12.0 | 0.00 | 0.00 | 0.00 | 79 | 1010.5 |
| 20260505032537 | 73 | 194 | 4.0 | 13.0 | 0.00 | 0.00 | 0.00 | 79 | 1010.4 |
| 20260505032036 | 73 | 197 | 5.0 | 13.0 | 0.00 | 0.00 | 0.00 | 78 | 1010.2 |
| 20260505031552 | 73 | 144 | 4.0 | 12.0 | 0.00 | 0.00 | 0.00 | 78 | 1010.1 |
| 20260505031036 | 73 | 171 | 5.0 | 12.0 | 0.00 | 0.00 | 0.00 | 77 | 1010.0 |
| 20260505030536 | 73 | 171 | 3.0 | 9.0 | 0.00 | 0.00 | 0.00 | 77 | 1010.0 |
| 20260505030051 | 73 | 200 | 3.0 | 11.0 | 0.00 | 0.00 | 0.00 | 77 | 1010.2 |
| 20260505025536 | 74 | 159 | 5.0 | 16.0 | 0.00 | 0.00 | 0.00 | 76 | 1010.1 |
| 20260505025038 | 74 | 175 | 6.0 | 16.0 | 0.00 | 0.00 | 0.00 | 76 | 1010.1 |
| 20260505024549 | 74 | 184 | 5.0 | 13.0 | 0.00 | 0.00 | 0.00 | 76 | 1010.1 |
| 20260505024036 | 74 | 156 | 6.0 | 14.0 | 0.00 | 0.00 | 0.00 | 76 | 1010.2 |
| 20260505023537 | 74 | 196 | 4.0 | 14.0 | 0.00 | 0.00 | 0.00 | 75 | 1010.2 |
| 20260505023051 | 74 | 159 | 5.0 | 13.0 | 0.00 | 0.00 | 0.00 | 75 | 1010.2 |
| 20260505022539 | 74 | 167 | 5.0 | 11.0 | 0.00 | 0.00 | 0.00 | 75 | 1010.2 |
| 20260505022037 | 74 | 175 | 4.0 | 11.0 | 0.00 | 0.00 | 0.00 | 75 | 1009.9 |
| 20260505021549 | 74 | 143 | 6.0 | 13.0 | 0.00 | 0.00 | 0.00 | 75 | 1010.0 |
| 20260505021036 | 74 | 156 | 4.0 | 13.0 | 0.00 | 0.00 | 0.00 | 75 | 1009.9 |
| 20260505020540 | 74 | 173 | 5.0 | 11.0 | 0.00 | 0.00 | 0.00 | 74 | 1010.0 |
| 20260505020050 | 74 | 165 | 4.0 | 10.0 | 0.00 | 0.00 | 0.00 | 74 | 1009.9 |
| 20260505015537 | 75 | 163 | 3.0 | 10.0 | 0.00 | 0.00 | 0.00 | 74 | 1009.8 |
| 20260505015040 | 75 | 162 | 5.0 | 10.0 | 0.00 | 0.00 | 0.00 | 74 | 1009.8 |
| 20260505014549 | 75 | 190 | 4.0 | 10.0 | 0.00 | 0.00 | 0.00 | 73 | 1009.8 |
| 20260505014039 | 75 | 182 | 4.0 | 10.0 | 0.00 | 0.00 | 0.00 | 73 | 1009.7 |
| 20260505013539 | 75 | 170 | 3.0 | 10.0 | 0.00 | 0.00 | 0.00 | 73 | 1009.8 |
| 20260505013054 | 75 | 163 | 4.0 | 9.0 | 0.00 | 0.00 | 0.00 | 72 | 1009.7 |
| 20260505012539 | 75 | 134 | 4.0 | 12.0 | 0.00 | 0.00 | 0.00 | 72 | 1009.6 |
| 20260505012039 | 76 | 187 | 4.0 | 14.0 | 0.00 | 0.00 | 0.00 | 72 | 1009.6 |
| 20260505011548 | 76 | 175 | 6.0 | 14.0 | 0.00 | 0.00 | 0.00 | 71 | 1009.6 |
| 20260505011037 | 76 | 166 | 5.0 | 14.0 | 0.00 | 0.00 | 0.00 | 71 | 1009.5 |
| 20260505010540 | 76 | 158 | 6.0 | 14.0 | 0.00 | 0.00 | 0.00 | 71 | 1009.5 |
| 20260505010103 | 76 | 217 | 4.0 | 9.0 | 0.00 | 0.00 | 0.00 | 71 | 1009.6 |
| 20260505005537 | 76 | 134 | 3.0 | 7.0 | 0.00 | 0.00 | 0.00 | 71 | 1009.5 |
| 20260505005040 | 76 | 150 | 3.0 | 12.0 | 0.00 | 0.00 | 0.00 | 71 | 1009.6 |
| 20260505004553 | 76 | 173 | 4.0 | 12.0 | 0.00 | 0.00 | 0.00 | 70 | 1009.5 |
| 20260505004040 | 76 | 171 | 5.0 | 11.0 | 0.00 | 0.00 | 0.00 | 70 | 1009.5 |
| 20260505003541 | 77 | 145 | 5.0 | 12.0 | 0.00 | 0.00 | 0.00 | 70 | 1009.5 |
| 20260505003048 | 77 | 165 | 4.0 | 12.0 | 0.00 | 0.00 | 0.00 | 70 | 1009.6 |
| 20260505002540 | 77 | 171 | 5.0 | 12.0 | 0.00 | 0.00 | 0.00 | 69 | 1009.7 |
| 20260505002040 | 77 | 214 | 3.0 | 11.0 | 0.00 | 0.00 | 0.00 | 70 | 1009.8 |
| 20260505001552 | 77 | 190 | 5.0 | 12.0 | 0.00 | 0.00 | 0.00 | 69 | 1009.8 |
| 20260505001039 | 77 | 150 | 5.0 | 12.0 | 0.00 | 0.00 | 0.00 | 69 | 1009.9 |
| 20260505000537 | 77 | 163 | 4.0 | 12.0 | 0.00 | 0.00 | 0.00 | 69 | 1009.9 |
| 20260504235540 | 78 | 181 | 4.0 | 11.0 | 0.00 | 0.00 | 0.00 | 68 | 1010.0 |
| 20260504235037 | 78 | 159 | 5.0 | 12.0 | 0.00 | 0.00 | 0.00 | 67 | 1009.8 |
| 20260504234605 | 78 | 202 | 6.0 | 12.0 | 0.00 | 0.00 | 0.00 | 67 | 1010.0 |
| 20260504234037 | 78 | 179 | 4.0 | 12.0 | 0.00 | 0.00 | 0.00 | 67 | 1010.0 |
| 20260504233540 | 78 | 152 | 6.0 | 12.0 | 0.00 | 0.00 | 0.00 | 68 | 1010.0 |
| 20260504233050 | 78 | 166 | 6.0 | 14.0 | 0.00 | 0.00 | 0.00 | 68 | 1010.2 |
| 20260504232537 | 78 | 178 | 6.0 | 17.0 | 0.00 | 0.00 | 0.00 | 67 | 1010.2 |
| 20260504232037 | 78 | 150 | 5.0 | 17.0 | 0.00 | 0.00 | 0.00 | 67 | 1010.2 |
| 20260504231553 | 78 | 166 | 6.0 | 15.0 | 0.00 | 0.00 | 0.00 | 67 | 1010.0 |
| 20260504231037 | 79 | 161 | 5.0 | 18.0 | 0.00 | 0.00 | 0.00 | 66 | 1010.1 |
| 20260504230535 | 79 | 202 | 7.0 | 18.0 | 0.00 | 0.00 | 0.00 | 67 | 1010.2 |
| 20260504230054 | 79 | 169 | 3.0 | 11.0 | 0.00 | 0.00 | 0.00 | 67 | 1010.3 |
| 20260504225537 | 79 | 174 | 3.0 | 11.0 | 0.00 | 0.00 | 0.00 | 66 | 1010.6 |
| 20260504225037 | 79 | 186 | 5.0 | 9.0 | 0.00 | 0.00 | 0.00 | 66 | 1010.7 |
| 20260504224550 | 79 | 157 | 4.0 | 10.0 | 0.00 | 0.00 | 0.00 | 67 | 1010.7 |
| 20260504224039 | 79 | 155 | 3.0 | 10.0 | 0.00 | 0.00 | 0.00 | 66 | 1010.7 |
| 20260504223537 | 79 | 200 | 3.0 | 12.0 | 0.00 | 0.00 | 0.00 | 65 | 1010.7 |
| 20260504223052 | 79 | 161 | 4.0 | 16.0 | 0.00 | 0.00 | 0.00 | 65 | 1010.6 |
| 20260504222536 | 79 | 171 | 6.0 | 17.0 | 0.00 | 0.00 | 0.00 | 65 | 1010.6 |
| 20260504222037 | 80 | 166 | 5.0 | 17.0 | 0.00 | 0.00 | 0.00 | 64 | 1010.6 |
| 20260504221547 | 80 | 126 | 7.0 | 14.0 | 0.00 | 0.00 | 0.00 | 65 | 1010.7 |
| 20260504221038 | 80 | 152 | 5.0 | 15.0 | 0.00 | 0.00 | 0.00 | 64 | 1010.8 |
| 20260504220537 | 80 | 161 | 7.0 | 15.0 | 0.00 | 0.00 | 0.00 | 64 | 1010.8 |
| 20260504220057 | 80 | 163 | 4.0 | 16.0 | 0.00 | 0.00 | 0.00 | 65 | 1010.9 |
| 20260504215537 | 80 | 173 | 7.0 | 16.0 | 0.00 | 0.00 | 0.00 | 64 | 1010.9 |
| 20260504215037 | 80 | 161 | 7.0 | 14.0 | 0.00 | 0.00 | 0.00 | 63 | 1010.9 |
| 20260504214547 | 80 | 153 | 5.0 | 14.0 | 0.00 | 0.00 | 0.00 | 63 | 1011.0 |
| 20260504214036 | 80 | 153 | 6.0 | 13.0 | 0.00 | 0.00 | 0.00 | 62 | 1011.3 |
| 20260504213536 | 80 | 188 | 7.0 | 12.0 | 0.00 | 0.00 | 0.00 | 62 | 1011.4 |
| 20260504213104 | 80 | 192 | 4.0 | 11.0 | 0.00 | 0.00 | 0.00 | 63 | 1011.4 |
| 20260504212537 | 80 | 198 | 4.0 | 15.0 | 0.00 | 0.00 | 0.00 | 63 | 1011.4 |
| 20260504212036 | 80 | 163 | 7.0 | 15.0 | 0.00 | 0.00 | 0.00 | 60 | 1011.6 |
| 20260504211549 | 80 | 205 | 4.0 | 11.0 | 0.00 | 0.00 | 0.00 | 60 | 1011.7 |
| 20260504211036 | 80 | 162 | 4.0 | 12.0 | 0.00 | 0.00 | 0.00 | 61 | 1011.8 |
| 20260504210537 | 80 | 194 | 4.0 | 15.0 | 0.00 | 0.00 | 0.00 | 61 | 1011.9 |
| 20260504210046 | 80 | 195 | 7.0 | 15.0 | 0.00 | 0.00 | 0.00 | 63 | 1011.8 |
| 20260504205539 | 79 | 155 | 5.0 | 16.0 | 0.00 | 0.00 | 0.00 | 63 | 1012.1 |
| 20260504205037 | 79 | 211 | 6.0 | 16.0 | 0.00 | 0.00 | 0.00 | 61 | 1012.2 |
| 20260504204602 | 79 | 161 | 5.0 | 17.0 | 0.00 | 0.00 | 0.00 | 61 | 1012.3 |
| 20260504204037 | 79 | 151 | 8.0 | 17.0 | 0.00 | 0.00 | 0.00 | 63 | 1012.4 |
| 20260504203537 | 79 | 175 | 3.0 | 13.0 | 0.00 | 0.00 | 0.00 | 62 | 1012.5 |
| 20260504203056 | 79 | 174 | 5.0 | 13.0 | 0.00 | 0.00 | 0.00 | 60 | 1012.4 |
| 20260504202537 | 80 | 221 | 3.0 | 11.0 | 0.00 | 0.00 | 0.00 | 61 | 1012.5 |
| 20260504202037 | 79 | 129 | 4.0 | 11.0 | 0.00 | 0.00 | 0.00 | 61 | 1012.6 |
| 20260504201552 | 80 | 202 | 4.0 | 13.0 | 0.00 | 0.00 | 0.00 | 61 | 1012.7 |
| 20260504201036 | 80 | 217 | 4.0 | 13.0 | 0.00 | 0.00 | 0.00 | 61 | 1012.7 |
| 20260504200536 | 80 | 159 | 5.0 | 13.0 | 0.00 | 0.00 | 0.00 | 62 | 1012.8 |
| 20260504200049 | 80 | 197 | 4.0 | 17.0 | 0.00 | 0.00 | 0.00 | 61 | 1013.0 |
| 20260504195538 | 79 | 161 | 5.0 | 17.0 | 0.00 | 0.00 | 0.00 | 61 | 1013.2 |
| 20260504195037 | 79 | 190 | 4.0 | 15.0 | 0.00 | 0.00 | 0.00 | 62 | 1013.2 |
| 20260504194547 | 79 | 161 | 5.0 | 15.0 | 0.00 | 0.00 | 0.00 | 60 | 1013.2 |
| 20260504194038 | 79 | 194 | 3.0 | 15.0 | 0.00 | 0.00 | 0.00 | 60 | 1013.3 |
| 20260504193536 | 79 | 197 | 4.0 | 15.0 | 0.00 | 0.00 | 0.00 | 60 | 1013.4 |
| 20260504193055 | 79 | 173 | 6.0 | 13.0 | 0.00 | 0.00 | 0.00 | 61 | 1013.4 |
| 20260504192537 | 79 | 138 | 4.0 | 12.0 | 0.00 | 0.00 | 0.00 | 63 | 1013.4 |
| 20260504192038 | 79 | 180 | 4.0 | 15.0 | 0.00 | 0.00 | 0.00 | 59 | 1013.5 |
| 20260504191548 | 78 | 163 | 6.0 | 15.0 | 0.00 | 0.00 | 0.00 | 62 | 1013.5 |
| 20260504191037 | 79 | 172 | 5.0 | 15.0 | 0.00 | 0.00 | 0.00 | 62 | 1013.5 |
| 20260504190537 | 79 | 169 | 7.0 | 15.0 | 0.00 | 0.00 | 0.00 | 61 | 1013.7 |
| 20260504190053 | 79 | 180 | 5.0 | 17.0 | 0.00 | 0.00 | 0.00 | 62 | 1013.6 |
| 20260504185536 | 78 | 205 | 9.0 | 17.0 | 0.00 | 0.00 | 0.00 | 60 | 1013.8 |
| 20260504185036 | 78 | 150 | 6.0 | 15.0 | 0.00 | 0.00 | 0.00 | 61 | 1013.8 |
| 20260504184550 | 78 | 246 | 4.0 | 15.0 | 0.00 | 0.00 | 0.00 | 60 | 1013.9 |
| 20260504184037 | 78 | 214 | 6.0 | 16.0 | 0.00 | 0.00 | 0.00 | 60 | 1014.0 |
| 20260504183537 | 78 | 198 | 5.0 | 16.0 | 0.00 | 0.00 | 0.00 | 62 | 1014.1 |
| 20260504183057 | 78 | 158 | 7.0 | 16.0 | 0.00 | 0.00 | 0.00 | 62 | 1014.1 |
| 20260504182536 | 78 | 157 | 7.0 | 16.0 | 0.00 | 0.00 | 0.00 | 61 | 1014.1 |
| 20260504182037 | 78 | 178 | 4.0 | 14.0 | 0.00 | 0.00 | 0.00 | 62 | 1014.1 |
| 20260504181548 | 77 | 136 | 6.0 | 14.0 | 0.00 | 0.00 | 0.00 | 62 | 1014.2 |
| 20260504181037 | 77 | 198 | 7.0 | 13.0 | 0.00 | 0.00 | 0.00 | 63 | 1014.3 |
| 20260504180538 | 77 | 181 | 8.0 | 13.0 | 0.00 | 0.00 | 0.00 | 61 | 1014.4 |
| 20260504180118 | 78 | 145 | 6.0 | 12.0 | 0.00 | 0.00 | 0.00 | 60 | 1014.5 |
| 20260504175538 | 78 | 250 | 3.0 | 11.0 | 0.00 | 0.00 | 0.00 | 61 | 1014.7 |
| 20260504175037 | 78 | 204 | 3.0 | 10.0 | 0.00 | 0.00 | 0.00 | 63 | 1014.9 |
| 20260504174552 | 77 | 143 | 3.0 | 9.0 | 0.00 | 0.00 | 0.00 | 62 | 1014.8 |
| 20260504174037 | 76 | 207 | 3.0 | 18.0 | 0.00 | 0.00 | 0.00 | 61 | 1014.8 |
| 20260504173537 | 77 | 229 | 4.0 | 19.0 | 0.00 | 0.00 | 0.00 | 64 | 1014.7 |
| 20260504173051 | 76 | 152 | 5.0 | 20.0 | 0.00 | 0.00 | 0.00 | 64 | 1014.9 |
| 20260504172536 | 76 | 170 | 10.0 | 20.0 | 0.00 | 0.00 | 0.00 | 62 | 1015.0 |
| 20260504172036 | 76 | 212 | 7.0 | 19.0 | 0.00 | 0.00 | 0.00 | 61 | 1015.1 |
| 20260504171551 | 76 | 159 | 9.0 | 16.0 | 0.00 | 0.00 | 0.00 | 63 | 1015.1 |
| 20260504171039 | 77 | 134 | 7.0 | 16.0 | 0.00 | 0.00 | 0.00 | 61 | 1015.3 |
| 20260504170537 | 76 | 164 | 3.0 | 15.0 | 0.00 | 0.00 | 0.00 | 65 | 1015.4 |
| 20260504151037 | 71 | 146 | 7.0 | 20.0 | 0.00 | 0.00 | 0.00 | 66 | 1016.3 |
| 20260504150539 | 71 | 197 | 8.0 | 20.0 | 0.00 | 0.00 | 0.00 | 67 | 1016.2 |
| 20260504141037 | 66 | 178 | 3.0 | 9.0 | 0.00 | 0.00 | 0.00 | 75 | 1016.4 |
| 20260504140538 | 66 | 183 | 3.0 | 9.0 | 0.00 | 0.00 | 0.00 | 76 | 1016.4 |
| 20260504130538 | 59 | 171 | 3.0 | 6.0 | 0.00 | 0.00 | 0.00 | 86 | 1016.2 |
| 20260504110536 | 54 | 0 | 0.0 | 0.0 | 0.00 | 0.01 | 0.00 | 89 | 1015.7 |
| 20260504100536 | 55 | 0 | 0.0 | 0.0 | 0.00 | 0.01 | 0.00 | 87 | 1015.9 |
| 20260504100107 | 55 | 0 | 0.0 | 0.0 | 0.00 | 0.01 | 0.00 | 87 | 1016.0 |